FW6720 Weather Reports


Display with metric or nautical units.
time (UTC)temp
F
wind
direction
speed
MPH
gust
MPH
rain 1hr
in
rain 24hr
in
rain mn
in
humidity
%
barometer
mb
20260507234630 69 42 0.0 0.0 0.00 0.00 0.00 49 1018.5
20260507234126 69 75 0.0 0.0 0.00 0.00 0.00 49 1018.5
20260507233623 69 20 0.0 1.0 0.00 0.00 0.00 51 1018.8
20260507233122 69 19 0.0 0.0 0.00 0.00 0.00 48 1018.7
20260507232618 70 19 0.0 0.0 0.00 0.00 0.00 47 1019.0
20260507232116 69 20 0.0 0.0 0.00 0.00 0.00 48 1018.8
20260507231611 69 20 0.0 0.0 0.00 0.00 0.00 49 1019.0
20260507231109 68 19 0.0 0.0 0.00 0.00 0.00 50 1019.1
20260507230605 69 62 1.0 2.0 0.00 0.00 0.00 52 1019.1
20260507225557 69 60 0.0 1.0 0.00 0.00 0.00 49 1019.2
20260507225054 68 61 0.0 0.0 0.00 0.00 0.00 52 1019.4
20260507224549 68 59 0.0 0.0 0.00 0.00 0.00 51 1019.5
20260507224046 68 22 0.0 0.0 0.00 0.00 0.00 52 1019.5
20260507223542 68 22 0.0 1.0 0.00 0.00 0.00 51 1019.6
20260507223040 69 21 0.0 0.0 0.00 0.00 0.00 51 1019.9
20260507222537 68 79 0.0 0.0 0.00 0.00 0.00 53 1019.7
20260507222033 68 82 1.0 2.0 0.00 0.00 0.00 50 1019.6
20260507221529 68 78 0.0 1.0 0.00 0.00 0.00 51 1019.8
20260507221026 68 229 0.0 0.0 0.00 0.00 0.00 50 1019.8
20260507220523 68 58 0.0 0.0 0.00 0.00 0.00 51 1020.0
20260507220021 67 74 0.0 1.0 0.00 0.00 0.00 51 1020.1
20260507215517 67 58 0.0 0.0 0.00 0.00 0.00 52 1020.1
20260507215015 68 56 0.0 0.0 0.00 0.00 0.00 53 1020.2
20260507214512 67 57 0.0 0.0 0.00 0.00 0.00 51 1020.3
20260507214007 67 58 0.0 0.0 0.00 0.00 0.00 51 1020.5
20260507213504 67 82 2.0 2.0 0.00 0.00 0.00 51 1020.4
20260507213001 67 219 0.0 0.0 0.00 0.00 0.00 53 1020.3
20260507212456 66 219 0.0 1.0 0.00 0.00 0.00 53 1020.3
20260507211954 66 77 1.0 2.0 0.00 0.00 0.00 52 1020.5
20260507211450 66 61 0.0 0.0 0.00 0.00 0.00 52 1020.5
20260507210947 64 92 0.0 1.0 0.00 0.00 0.00 54 1020.5
20260507210444 65 16 1.0 2.0 0.00 0.00 0.00 56 1020.6
20260507205941 65 13 0.0 0.0 0.00 0.00 0.00 52 1020.5
20260507205438 67 14 0.0 0.0 0.00 0.00 0.00 53 1021.0
20260507204934 67 67 0.0 0.0 0.00 0.00 0.00 51 1020.6
20260507204430 66 24 0.0 0.0 0.00 0.00 0.00 51 1020.8
20260507203928 66 24 2.0 3.0 0.00 0.00 0.00 50 1020.7
20260507203426 65 23 0.0 1.0 0.00 0.00 0.00 50 1020.9
20260507202922 64 21 0.0 0.0 0.00 0.00 0.00 51 1021.1
20260507202419 65 19 0.0 0.0 0.00 0.00 0.00 50 1021.1
20260507201915 65 18 0.0 0.0 0.00 0.00 0.00 49 1021.0
20260507201410 64 27 0.0 1.0 0.00 0.00 0.00 50 1021.1
20260507200907 65 92 1.0 1.0 0.00 0.00 0.00 49 1021.2
20260507200402 67 23 0.0 0.0 0.00 0.00 0.00 48 1021.2
20260507195858 64 24 0.0 0.0 0.00 0.00 0.00 48 1021.2
20260507195356 64 87 1.0 2.0 0.00 0.00 0.00 49 1021.3
20260507194853 64 13 0.0 0.0 0.00 0.00 0.00 50 1021.3
20260507194349 62 16 0.0 0.0 0.00 0.00 0.00 53 1021.6
20260507193846 64 86 2.0 3.0 0.00 0.00 0.00 51 1021.6
20260507193343 65 26 0.0 0.0 0.00 0.00 0.00 50 1021.5
20260507192839 63 23 0.0 0.0 0.00 0.00 0.00 50 1021.5
20260507192336 62 23 0.0 0.0 0.00 0.00 0.00 51 1021.4
20260507191832 62 79 0.0 0.0 0.00 0.00 0.00 52 1021.4
20260507191328 62 81 1.0 1.0 0.00 0.00 0.00 52 1021.7
20260507190825 62 79 0.0 0.0 0.00 0.00 0.00 52 1021.7
20260507190324 64 82 1.0 2.0 0.00 0.00 0.00 51 1021.6
20260507185822 62 84 0.0 0.0 0.00 0.00 0.00 55 1021.6
20260507185319 61 85 0.0 0.0 0.00 0.00 0.00 52 1022.0
20260507184816 60 86 0.0 0.0 0.00 0.00 0.00 53 1022.0
20260507184314 61 87 0.0 0.0 0.00 0.00 0.00 53 1022.0
20260507183810 60 86 0.0 0.0 0.00 0.00 0.00 53 1021.9
20260507183308 62 161 0.0 0.0 0.00 0.00 0.00 54 1022.0
20260507182805 59 161 0.0 0.0 0.00 0.00 0.00 55 1022.2
20260507182300 60 161 0.0 0.0 0.00 0.00 0.00 55 1022.1
20260507181757 62 25 0.0 0.0 0.00 0.00 0.00 54 1022.1
20260507181253 61 25 0.0 0.0 0.00 0.00 0.00 58 1022.4
20260507180750 60 25 0.0 0.0 0.00 0.00 0.00 55 1022.3
20260507180247 59 26 0.0 1.0 0.00 0.00 0.00 58 1022.5
20260507175742 57 25 0.0 1.0 0.00 0.00 0.00 58 1022.4
20260507175239 58 23 0.0 0.0 0.00 0.00 0.00 59 1022.5
20260507174737 59 23 1.0 2.0 0.00 0.00 0.00 57 1022.6
20260507174235 58 23 0.0 0.0 0.00 0.00 0.00 60 1022.5
20260507173732 58 52 0.0 0.0 0.00 0.00 0.00 61 1022.6
20260507173229 57 53 0.0 0.0 0.00 0.00 0.00 64 1022.6
20260507172725 57 52 0.0 0.0 0.00 0.00 0.00 61 1022.5
20260507172223 58 52 0.0 0.0 0.00 0.00 0.00 61 1022.7
20260507171722 57 52 0.0 0.0 0.00 0.00 0.00 63 1022.9
20260507171220 57 53 0.0 0.0 0.00 0.00 0.00 61 1022.6
20260507170717 57 52 0.0 0.0 0.00 0.00 0.00 61 1022.7
20260507170214 57 53 0.0 0.0 0.00 0.00 0.00 60 1022.9
20260507165709 56 52 0.0 0.0 0.00 0.00 0.00 64 1022.9
20260507165206 57 38 0.0 0.0 0.00 0.00 0.00 61 1022.7
20260507164702 56 39 0.0 0.0 0.00 0.00 0.00 62 1022.8
20260507164159 55 37 0.0 0.0 0.00 0.00 0.00 66 1022.8
20260507163656 54 73 0.0 0.0 0.00 0.00 0.00 66 1022.9
20260507163154 55 38 0.0 0.0 0.00 0.00 0.00 69 1022.8
20260507162650 54 38 0.0 0.0 0.00 0.00 0.00 65 1022.8
20260507162146 54 38 0.0 0.0 0.00 0.00 0.00 66 1022.9
20260507161642 53 38 0.0 0.0 0.00 0.00 0.00 67 1023.0
20260507161139 51 79 0.0 1.0 0.00 0.00 0.00 68 1022.9
20260507160635 52 31 0.0 0.0 0.00 0.00 0.00 67 1023.0
20260507160132 51 28 0.0 0.0 0.00 0.00 0.00 71 1022.9
20260507155628 51 31 0.0 0.0 0.00 0.00 0.00 75 1023.1
20260507155125 51 32 0.0 1.0 0.00 0.00 0.00 72 1023.1
20260507154621 50 28 0.0 0.0 0.00 0.00 0.00 74 1023.0
20260507154119 50 26 0.0 0.0 0.00 0.00 0.00 80 1023.0
20260507153615 49 25 0.0 0.0 0.00 0.00 0.00 79 1023.1
20260507153112 49 25 0.0 0.0 0.00 0.00 0.00 82 1023.1
20260507152608 48 25 0.0 0.0 0.00 0.00 0.00 83 1023.1
20260507152104 48 25 0.0 0.0 0.00 0.00 0.00 84 1023.1
20260507151600 47 25 0.0 0.0 0.00 0.00 0.00 85 1023.0
20260507151057 47 25 0.0 0.0 0.00 0.00 0.00 90 1022.9
20260507150554 45 25 0.0 0.0 0.00 0.00 0.00 91 1023.3
20260507150051 44 25 0.0 0.0 0.00 0.00 0.00 96 1022.9
20260507145546 43 25 0.0 0.0 0.00 0.00 0.00 97 1023.4
20260507145044 43 25 0.0 0.0 0.00 0.00 0.00 97 1023.0
20260507144540 42 25 0.0 0.0 0.00 0.00 0.00 97 1023.1
20260507144038 42 25 0.0 0.0 0.00 0.00 0.00 97 1023.1
20260507143535 42 25 0.0 0.0 0.00 0.00 0.00 97 1023.3
20260507143032 41 25 0.0 0.0 0.00 0.00 0.00 97 1023.1
20260507142527 41 25 0.0 0.0 0.00 0.00 0.00 97 1023.3
20260507142025 41 25 0.0 0.0 0.00 0.00 0.00 97 1023.0
20260507141520 41 25 0.0 0.0 0.00 0.00 0.00 97 1023.0
20260507141017 41 25 0.0 0.0 0.00 0.00 0.00 97 1023.5
20260507140514 41 25 0.0 0.0 0.00 0.00 0.00 97 1023.3
20260507140012 40 25 0.0 0.0 0.00 0.00 0.00 97 1023.0
20260507135508 40 25 0.0 0.0 0.00 0.00 0.00 96 1022.8
20260507135006 40 25 0.0 0.0 0.00 0.00 0.00 96 1023.0
20260507134502 40 25 0.0 0.0 0.00 0.00 0.00 96 1023.1
20260507133958 40 25 0.0 0.0 0.00 0.00 0.00 96 1023.1
20260507133454 41 26 0.0 0.0 0.00 0.00 0.00 96 1022.8
20260507132953 41 25 0.0 0.0 0.00 0.00 0.00 96 1022.8
20260507132448 41 26 0.0 0.0 0.00 0.00 0.00 96 1022.7
20260507131945 41 26 0.0 0.0 0.00 0.00 0.00 96 1022.8
20260507131442 41 26 0.0 0.0 0.00 0.00 0.00 96 1022.8
20260507130939 41 26 0.0 0.0 0.00 0.00 0.00 95 1022.9
20260507130436 41 26 0.0 0.0 0.00 0.00 0.00 95 1023.0
20260507125935 41 26 0.0 0.0 0.00 0.00 0.00 95 1022.9
20260507125433 41 26 0.0 0.0 0.00 0.00 0.00 95 1022.8
20260507124930 41 27 0.0 0.0 0.00 0.00 0.00 94 1022.6
20260507124426 41 27 0.0 0.0 0.00 0.00 0.00 94 1022.8
20260507123924 41 27 0.0 0.0 0.00 0.00 0.00 93 1022.5
20260507123421 42 27 0.0 0.0 0.00 0.00 0.00 93 1022.8
20260507122918 42 27 0.0 0.0 0.00 0.00 0.00 93 1022.8
20260507122413 42 27 0.0 0.0 0.00 0.00 0.00 93 1022.8
20260507121910 42 27 0.0 0.0 0.00 0.00 0.00 92 1023.0
20260507121405 42 27 0.0 0.0 0.00 0.00 0.00 92 1022.7
20260507120902 42 27 0.0 0.0 0.00 0.00 0.00 91 1022.9
20260507120358 43 27 0.0 0.0 0.00 0.00 0.00 91 1022.8
20260507115854 43 27 0.0 0.0 0.00 0.00 0.00 91 1023.0
20260507115350 43 27 0.0 0.0 0.00 0.00 0.00 91 1022.9
20260507114846 44 27 0.0 0.0 0.00 0.00 0.00 90 1023.1
20260507114343 44 27 0.0 0.0 0.00 0.00 0.00 90 1023.3
20260507113841 44 27 0.0 0.0 0.00 0.00 0.00 90 1023.4
20260507113338 44 27 0.0 0.0 0.00 0.00 0.00 90 1023.1
20260507112835 45 27 0.0 0.0 0.00 0.00 0.00 89 1023.0
20260507112332 45 27 0.0 0.0 0.00 0.00 0.00 89 1023.0
20260507111830 45 27 0.0 0.0 0.00 0.00 0.00 89 1023.1
20260507111326 46 27 0.0 0.0 0.00 0.00 0.00 89 1023.1
20260507110822 46 27 0.0 0.0 0.00 0.00 0.00 89 1023.0
20260507110319 46 27 0.0 0.0 0.00 0.00 0.00 89 1023.1
20260507105816 46 27 0.0 0.0 0.00 0.00 0.00 89 1023.3
20260507105312 46 27 0.0 0.0 0.00 0.00 0.00 89 1023.4
20260507104809 47 27 0.0 0.0 0.00 0.00 0.00 89 1023.3
20260507104306 47 27 0.0 0.0 0.00 0.00 0.00 89 1023.0
20260507103802 47 27 0.0 0.0 0.00 0.00 0.00 89 1023.5
20260507103258 47 27 0.0 0.0 0.00 0.00 0.00 89 1023.5
20260507102755 47 27 0.0 0.0 0.00 0.00 0.00 89 1023.5
20260507102251 47 27 0.0 0.0 0.00 0.00 0.00 89 1023.5
20260507101748 47 27 0.0 0.0 0.00 0.00 0.00 90 1023.7
20260507101242 47 27 0.0 0.0 0.00 0.00 0.00 90 1023.6
20260507100740 47 27 0.0 0.0 0.00 0.00 0.00 92 1023.6
20260507100238 47 27 0.0 0.0 0.00 0.00 0.00 92 1023.6
20260507095736 47 27 0.0 0.0 0.00 0.00 0.00 92 1023.6
20260507095232 47 27 0.0 0.0 0.00 0.00 0.00 92 1023.7
20260507094729 47 27 0.0 0.0 0.00 0.00 0.00 93 1023.8
20260507094226 47 27 0.0 0.0 0.00 0.00 0.00 92 1023.6
20260507093723 47 27 0.0 0.0 0.00 0.00 0.00 93 1023.6
20260507093222 46 27 0.0 0.0 0.00 0.00 0.00 93 1023.6
20260507092719 46 27 0.0 0.0 0.00 0.00 0.00 93 1023.6
20260507092215 46 27 0.0 0.0 0.00 0.00 0.00 93 1023.8
20260507091711 46 27 0.0 0.0 0.00 0.00 0.00 93 1023.8
20260507091208 46 27 0.0 0.0 0.00 0.00 0.00 93 1023.8
20260507090703 46 27 0.0 0.0 0.00 0.00 0.00 93 1023.8
20260507090200 46 27 0.0 0.0 0.00 0.00 0.00 93 1023.9
20260507085657 46 27 0.0 0.0 0.00 0.00 0.00 93 1024.1
20260507085154 46 27 0.0 0.0 0.00 0.00 0.00 93 1024.0
20260507084651 46 27 0.0 0.0 0.00 0.00 0.00 93 1024.0
20260507084148 45 27 0.0 0.0 0.00 0.00 0.00 93 1024.0
20260507083644 45 27 0.0 0.0 0.00 0.00 0.00 93 1023.9
20260507083142 45 27 0.0 0.0 0.00 0.00 0.00 93 1024.0
20260507082637 45 27 0.0 0.0 0.00 0.00 0.00 93 1023.8
20260507082134 45 27 0.0 0.0 0.00 0.00 0.00 93 1023.9
20260507081630 45 27 0.0 0.0 0.00 0.00 0.00 93 1024.1
20260507081127 45 27 0.0 0.0 0.00 0.00 0.00 93 1024.1
20260507080623 45 27 0.0 0.0 0.00 0.00 0.00 93 1023.9
20260507080120 45 27 0.0 0.0 0.00 0.00 0.00 93 1024.0
20260507075620 45 27 0.0 0.0 0.00 0.00 0.00 92 1024.0
20260507075117 45 27 0.0 0.0 0.00 0.00 0.00 91 1023.9
20260507074613 45 27 0.0 0.0 0.00 0.00 0.00 91 1024.0
20260507074112 45 27 0.0 0.0 0.00 0.00 0.00 91 1023.8
20260507073608 45 27 0.0 0.0 0.00 0.00 0.00 91 1023.8
20260507073104 46 27 0.0 0.0 0.00 0.00 0.00 91 1024.0
20260507072602 46 27 0.0 0.0 0.00 0.00 0.00 90 1023.7
20260507072059 46 27 0.0 0.0 0.00 0.00 0.00 90 1023.9
20260507071556 46 27 0.0 0.0 0.00 0.00 0.00 89 1023.6
20260507071052 46 27 0.0 0.0 0.00 0.00 0.00 89 1023.9
20260507070550 46 27 0.0 0.0 0.00 0.00 0.00 89 1023.7
20260507070047 46 27 0.0 0.0 0.00 0.00 0.00 89 1023.7
20260507065543 47 27 0.0 0.0 0.00 0.00 0.00 88 1023.8
20260507065040 47 27 0.0 0.0 0.00 0.00 0.00 88 1023.8
20260507064538 47 27 0.0 0.0 0.00 0.00 0.00 88 1023.6
20260507064036 47 27 0.0 0.0 0.00 0.00 0.00 87 1023.7
20260507063533 48 27 0.0 0.0 0.00 0.00 0.00 87 1023.7
20260507063030 48 27 0.0 0.0 0.00 0.00 0.00 87 1023.7
20260507062527 48 27 0.0 0.0 0.00 0.00 0.00 87 1023.9
20260507062025 48 27 0.0 0.0 0.00 0.00 0.00 86 1023.8
20260507061522 48 27 0.0 0.0 0.00 0.00 0.00 86 1023.6
20260507061020 49 27 0.0 0.0 0.00 0.00 0.00 86 1023.6
20260507060518 49 28 0.0 0.0 0.00 0.00 0.00 85 1023.8
20260507060014 49 27 0.0 0.0 0.00 0.00 0.00 85 1023.9
20260507055509 49 27 0.0 0.0 0.00 0.00 0.00 85 1023.9
20260507055006 49 28 0.0 0.0 0.00 0.00 0.00 85 1023.8
20260507054502 50 29 0.0 0.0 0.00 0.00 0.00 85 1023.8
20260507053959 50 29 0.0 0.0 0.00 0.00 0.00 84 1023.8
20260507053457 50 29 0.0 0.0 0.00 0.00 0.00 85 1023.8
20260507052955 50 28 0.0 0.0 0.00 0.00 0.00 84 1023.9
20260507052452 50 28 0.0 0.0 0.00 0.00 0.00 84 1023.9
20260507051949 50 28 0.0 0.0 0.00 0.00 0.00 84 1024.0
20260507051447 50 29 0.0 0.0 0.00 0.00 0.00 84 1023.8
20260507050943 51 28 0.0 0.0 0.00 0.00 0.00 84 1023.9
20260507050440 51 29 0.0 0.0 0.00 0.00 0.00 84 1023.8
20260507045937 51 29 0.0 0.0 0.00 0.00 0.00 84 1024.0
20260507045433 51 29 0.0 0.0 0.00 0.00 0.00 83 1023.6
20260507044931 51 29 0.0 0.0 0.00 0.00 0.00 83 1023.7
20260507044427 52 29 0.0 0.0 0.00 0.00 0.00 83 1023.7
20260507043923 52 29 0.0 0.0 0.00 0.00 0.00 82 1023.9
20260507043420 52 29 0.0 0.0 0.00 0.00 0.00 82 1023.8
20260507042916 53 29 0.0 0.0 0.00 0.00 0.00 81 1023.9
20260507042413 53 29 0.0 0.0 0.00 0.00 0.00 80 1023.7
20260507041909 54 29 0.0 0.0 0.00 0.00 0.00 79 1023.7
20260507041406 54 29 0.0 0.0 0.00 0.00 0.00 78 1023.6
20260507040903 55 29 0.0 0.0 0.00 0.00 0.00 76 1023.6
20260507040358 55 29 0.0 0.0 0.00 0.00 0.00 76 1023.7
20260507035854 55 29 0.0 0.0 0.00 0.00 0.00 76 1023.4
20260507035351 55 29 0.0 0.0 0.00 0.00 0.00 78 1023.4
20260507034848 55 29 0.0 0.0 0.00 0.00 0.00 77 1023.3
20260507034345 55 29 0.0 0.0 0.00 0.00 0.00 78 1023.3
20260507033843 56 29 0.0 0.0 0.00 0.00 0.00 78 1023.1
20260507033341 56 29 0.0 0.0 0.00 0.00 0.00 78 1023.1
20260507032837 56 29 0.0 0.0 0.00 0.00 0.00 77 1023.0
20260507032334 56 27 0.0 0.0 0.00 0.00 0.00 76 1022.9
20260507031830 56 26 0.0 0.0 0.00 0.00 0.00 75 1023.0
20260507031327 56 26 0.0 0.0 0.00 0.00 0.00 74 1022.7
20260507030823 56 26 0.0 0.0 0.00 0.00 0.00 74 1022.7
20260507030321 56 26 0.0 0.0 0.00 0.00 0.00 74 1023.0
20260507025818 56 26 0.0 0.0 0.00 0.00 0.00 73 1022.7
20260507025315 57 51 0.0 0.0 0.00 0.00 0.00 72 1022.7
20260507024813 57 51 0.0 0.0 0.00 0.00 0.00 72 1022.5
20260507024310 57 51 0.0 0.0 0.00 0.00 0.00 72 1022.6
20260507023806 57 41 0.0 0.0 0.00 0.00 0.00 71 1022.3
20260507023302 58 41 0.0 0.0 0.00 0.00 0.00 71 1022.6
20260507022800 58 41 0.0 0.0 0.00 0.00 0.00 70 1022.3
20260507022256 58 29 0.0 0.0 0.00 0.00 0.00 70 1022.5
20260507021752 58 29 0.0 0.0 0.00 0.00 0.00 70 1022.4
20260507021248 58 24 0.0 0.0 0.00 0.00 0.00 70 1022.4
20260507020746 58 24 0.0 0.0 0.00 0.00 0.00 70 1022.3
20260507020242 59 34 0.0 1.0 0.00 0.00 0.00 70 1022.3
20260507015740 59 41 0.0 0.0 0.00 0.00 0.00 71 1022.2
20260507015237 59 41 0.0 0.0 0.00 0.00 0.00 69 1022.4
20260507014734 60 38 0.0 1.0 0.00 0.00 0.00 68 1022.5
20260507014230 60 38 0.0 0.0 0.00 0.00 0.00 68 1022.4
20260507013727 60 44 0.0 0.0 0.00 0.00 0.00 68 1022.3
20260507013224 61 24 0.0 0.0 0.00 0.00 0.00 68 1022.3
20260507012722 61 41 0.0 0.0 0.00 0.00 0.00 67 1022.4
20260507012217 61 4 0.0 0.0 0.00 0.00 0.00 66 1022.6
20260507011715 61 4 0.0 0.0 0.00 0.00 0.00 66 1022.5
20260507011211 62 4 0.0 0.0 0.00 0.00 0.00 65 1022.5
20260507010710 62 4 0.0 0.0 0.00 0.00 0.00 66 1022.4
20260507010207 62 4 0.0 0.0 0.00 0.00 0.00 68 1022.4
20260507005705 62 4 0.0 0.0 0.00 0.00 0.00 70 1022.5
20260507005200 62 3 0.0 0.0 0.00 0.00 0.00 68 1022.6
20260507004657 62 3 0.0 0.0 0.00 0.00 0.00 69 1022.4
20260507004155 62 3 0.0 0.0 0.00 0.00 0.00 69 1022.5
20260507003651 62 3 0.0 0.0 0.00 0.00 0.00 70 1022.5
20260507003151 62 3 0.0 0.0 0.00 0.00 0.00 70 1022.4
20260507002648 62 3 0.0 0.0 0.00 0.00 0.00 68 1022.5
20260507002144 62 3 0.0 0.0 0.00 0.00 0.00 67 1022.4
20260507001641 63 3 0.0 0.0 0.00 0.00 0.00 67 1022.4
20260507001138 64 4 0.0 0.0 0.00 0.00 0.00 68 1022.6
20260507000634 64 4 0.0 0.0 0.00 0.00 0.00 67 1022.2
20260507000130 64 4 0.0 0.0 0.00 0.00 0.00 65 1022.1
20260506235627 65 6 0.0 0.0 0.00 0.00 0.00 64 1022.3
20260506235127 65 14 0.0 0.0 0.00 0.00 0.00 67 1022.3